Location: Quedlinburg
(51.7921°N, 11.1414°E)
Time: 22:28:11
(UTC+01:00)

Oscar 11 - Visible Passes

Search period start: 10 March 2026 00:00
Search period end: 20 March 2026 00:00
Orbit: 590 x 602 km, 97.8° (Epoch: 10 March)

Date Brightness Start Highest point End Pass type
(mag) Time Alt. Az. Time Alt. Az. Time Alt. Az.
10 Mar 8.5 03:20:45 10° NNE 03:24:07 33° E 03:24:07 33° E visible
10 Mar 7.8 04:56:32 10° N 05:00:11 30° WNW 05:00:48 28° W visible
11 Mar 8.0 03:30:36 10° NNE 03:34:19 42° E 03:34:19 42° E visible
11 Mar 8.1 05:06:38 10° N 05:10:04 25° WNW 05:11:01 23° W visible
12 Mar 7.5 03:40:29 10° NNE 03:44:32 54° E 03:44:32 54° E visible
12 Mar 8.4 05:16:48 10° NNW 05:19:56 21° WNW 05:21:13 18° W visible
13 Mar 7.1 03:50:23 10° NNE 03:54:34 68° ESE 03:54:45 67° ESE visible
13 Mar 8.6 05:27:00 10° NNW 05:29:46 17° WNW 05:31:26 14° W visible
14 Mar 9.9 02:27:07 10° ENE 02:28:11 11° E 02:28:17 11° E visible
14 Mar 6.9 04:00:19 10° NNE 04:04:31 85° E 04:04:57 71° S visible
14 Mar 8.8 05:37:16 10° NNW 05:39:35 15° WNW 05:41:38 11° W visible
15 Mar 9.7 02:36:09 10° ENE 02:38:16 13° E 02:38:29 13° E visible
15 Mar 6.8 04:10:16 10° NNE 04:14:28 78° WNW 04:15:09 60° SW visible
15 Mar 9.0 05:47:42 10° NNW 05:49:24 12° NW 05:51:07 10° WNW visible
16 Mar 9.4 02:45:36 10° NE 02:48:19 17° E 02:48:40 16° E visible
16 Mar 6.9 04:20:14 10° N 04:24:23 63° WNW 04:25:21 47° SW visible
17 Mar 9.1 02:55:12 10° NE 02:58:22 20° E 02:58:52 20° ESE visible
17 Mar 7.2 04:30:14 10° N 04:34:17 50° WNW 04:35:33 37° WSW visible
18 Mar 8.8 03:04:54 10° NE 03:08:23 25° E 03:09:04 24° ESE visible
18 Mar 7.5 04:40:14 10° N 04:44:11 41° WNW 04:45:45 28° WSW visible
19 Mar 8.5 03:14:39 10° NNE 03:18:23 30° E 03:19:15 28° ESE visible
19 Mar 7.7 04:50:16 10° N 04:54:03 33° WNW 04:55:56 22° WSW visible
